Regional Weather Roundup
Issued by NWS

Home | Current Version | Previous Version | Graphics & Text | Print | Product List | Glossary On
Versions: 1 2 3 4 5 6 7 8 9 10 11 12 13 14 15 16 17 18 19 20 21 22 23 24 25 26 27 28 29 30 31 32 33 34 35 36 37 38 39 40 41 42 43 44 45 46 47 48 49 50
000
ASUS45 KTFX 280204
RWRMT
MONTANA HOURLY WEATHER ROUNDUP
NATIONAL WEATHER SERVICE GREAT FALLS MT
804 PM MDT SUN JUL 27 2014

NOTE: "FAIR" INDICATES FEW OR NO CLOUDS BELOW 12000 FEET WITH NO
SIGNIFICANT WEATHER AND/OR OBSTRUCTIONS TO VISIBILITY.

* THESE STATIONS ARE NOT UNDER NWS QUALITY CONTROL. THEY DO NOT
   REPORT WEATHER SUCH AS PRECIPITATION OR FOG.

MTZ001>007-043-280300-
WEST OF THE DIVIDE
CITY           SKY/WX    TMP DP  RH WIND       PRES   REMARKS
KALISPELL      PTCLDY    84  46  26 W3        30.15S
MISSOULA       PTCLDY    88  39  18 N13G22    30.13R
BUTTE          CLEAR     84  30  14 SE12      30.27S
MULLAN PASS    MOCLDY    70  34  27 CALM      30.35S
* ESSEX        N/A       72  44  37 NW1        N/A
* LINCOLN      N/A       82  49  32 S1G6       N/A
* LOOKOUT PASS N/A       76  38  25 N/A        N/A
* POLSON       N/A       79  39  24 N2         N/A
* RONAN APT    CLEAR     82  46  28 N6         N/A
* SEELEY LAKE  N/A       86  31  14 N8G14      N/A
* THOMP F APT  PTCLDY    85  22  10 E2G15      N/A
* YAAK HILL    N/A       92  40  16 W1         N/A
$$

MTZ008-052>055-280300-
SOUTHWEST MONTANA
CITY           SKY/WX    TMP DP  RH WIND       PRES   REMARKS
BOZEMAN        CLEAR     88  27  11 CALM      30.21S
DILLON         CLEAR     81  45  28 NE9       30.21F
W YELLOWSTONE  CLEAR     81  19  10 W3        30.34R
* THREE FORKS  CLEAR     90  39  17 N/A        N/A
* BOULDER HILL N/A       77  38  25 N4G10      N/A
* MONIDA PASS  N/A       83  25  12 NE4        N/A
* RAYNOLDS PAS N/A       79  76  91 NW9        N/A
* WHITEHALL    N/A       90  31  12 E4G11      N/A
* WISE RIVER   N/A       84  22  10 W7G12      N/A
$$

MTZ009>010-012-014-046-048-049-054-280300-
EAST SLOPES AND CENTRAL MONTANA
CITY           SKY/WX    TMP DP  RH WIND       PRES   REMARKS
CUT BANK       CLEAR     82  41  23 SE7       30.21F
GREAT FALLS    PTCLDY    84  34  17 NE9       30.18S
HELENA         PTCLDY    88  36  16 E8        30.16S
* CONRAD       CLEAR     79  46  31 N/A        N/A
* DEARBORN     N/A       85  37  18 N17G24     N/A
* EAST GLACIER N/A       76  43  31 S5G10      N/A
* MONARCH      N/A       78  35  21 NE12       N/A
* ROGERS PASS  N/A       72  38  29 NW2        N/A
* SAINT MARY   N/A       82  37  20 SW4G11     N/A
* SWEET GRASS  N/A       83  39  21 E7         N/A
$$

MTZ011-013-016-021-035-040-045-047-050-051-280300-
NORTH CENTRAL MONTANA
CITY           SKY/WX    TMP DP  RH WIND       PRES   REMARKS
HAVRE          CLEAR     82  43  25 E12       30.19S
LEWISTOWN      CLEAR     82  39  22 E14       30.25R
* CHESTER      N/A       86  35  16 SE1        N/A
* DENTON       N/A       83  37  19 NE11G16    N/A
* GEYSER       N/A       84  40  21 E8         N/A
* JUDITH GAP   N/A       81  39  22 SE6G12     N/A
* LOMA         N/A       85  38  19 NE11G16    N/A
$$

MTZ017>020-022>027-061-062-280300-
NORTHEAST MONTANA
CITY           SKY/WX    TMP DP  RH WIND       PRES   REMARKS
GLASGOW        CLEAR     79  45  30 N9        30.22S
GLENDIVE       PTCLDY    75  52  45 NE9       30.26S
JORDAN         CLEAR     81  41  24 NE12      30.23S
SIDNEY         CLEAR     72  52  49 E6        30.28R
WOLF POINT     CLEAR     75  54  48 E10       30.23S
* BEAVER HILL  N/A       72  51  48 E7         N/A
* CIRCLE       N/A       80  51  36 N/A        N/A
* LINDSAY DVD  N/A       74  51  45 NE6        N/A
* NAVAJO       N/A       69  55  61 SE5        N/A
$$

MTZ028>042-056>058-280300-
SOUTHCENTRAL AND SOUTHEAST MONTANA
CITY           SKY/WX    TMP DP  RH WIND       PRES   REMARKS
BAKER          CLEAR     72  52  49 E10       30.28S
BILLINGS       FAIR      81  43  26 NE13      30.23S
LIVINGSTON     CLEAR     82  39  22 E10       30.23S
MILES CITY     CLEAR     79  45  30 E9        30.23R
* LAUREL APT   CLEAR     82  43  25 N8         N/A
* ROUNDUP APT  CLEAR     84  39  20 E8         N/A
* ALZADA       N/A       77  41  28 VRB4       N/A
* HYSHAM       N/A       79  40  25 E6         N/A
* LAME DEER    N/A       76  41  29 NE8        N/A
* REED POINT   N/A       85  42  22 E10        N/A
* ROSCOE HILL  N/A       77  36  23 NE11       N/A
$$

REGIONAL REPORTS...DAKOTAS
CITY           SKY/WX    TMP DP  RH WIND       PRES   REMARKS
WILLISTON      CLEAR     70  52  53 NE8       30.28S
DICKINSON      CLEAR     63  54  73 E6        30.28R
CROSBY         CLEAR     68  59  73 CALM      30.28S
TIOGA          CLEAR     63  61  93 NE3       30.32S
WATFORD CITY   CLEAR     66  52  61 NE8       30.26F
BISMARCK       CLEAR     64  54  70 NE7       30.28R
GRAND FORKS    MOCLDY    63  57  81 N6        30.18S
FARGO          CLOUDY    64  55  73 N10       30.18R
BUFFALO SD     CLEAR     68  54  61 E15       30.23R
RAPID CITY     CLEAR     70  52  53 NE8       30.27R
$$

REGIONAL REPORTS...WYOMING/IDAHO/WASHINGTON
CITY           SKY/WX    TMP DP  RH WIND       PRES   REMARKS
GILLETTE       CLEAR     75  43  32 E9        30.29S
SHERIDAN       CLEAR     81  45  28 E3        30.25S
YELLOWSTONE LA PTCLDY    68  37  32 CALM      30.46S
SALMON         CLEAR     88  41  19 NW6       30.05F
MULLAN PASS    MOCLDY    70  34  27 CALM      30.35S
SAND POINT     PTCLDY    75  54  48 W3        30.10S
SPOKANE        MOCLDY    91  30  11 N5        30.09S

$$



USA.gov is the U.S. government's official web portal to all federal, state and local government web resources and services.